Location: Braffe
(50.5519°N, 3.5807°E)
Time: 01:18:50
(UTC+00:00)

Daily predictions for brighter satellites

Satellite Brightness Start Highest point End
(mag) Time Altitude Azimuth Time Altitude Azimuth Time Altitude Azimuth
Cosmos 1943 Rocket 4.4 00:07:06 16° ENE 00:07:06 16° ENE 00:08:44 10° NE
USA 215 4.5 00:20:21 31° WNW 00:20:21 31° WNW 00:23:26 10° WNW
CZ-2D R/B 4.4 00:13:50 10° NE 00:15:41 15° ENE 00:15:41 15° ENE
Resurs 1-4 Rocket 4.4 00:16:01 10° NE 00:18:06 17° ENE 00:18:06 17° ENE
Lacrosse 5 4.5 00:50:03 12° ENE 00:50:03 12° ENE 00:50:34 10° ENE
ATLAS 2AS CENTAUR R/B 4.3 00:53:23 13° WNW 00:59:04 31° NNW 01:05:19 10° NE
SL-16 R/B 2.9 01:19:18 61° ENE 01:19:18 61° ENE 01:25:27 10° N
Cosmos 2369 Rocket 3.7 01:21:55 27° E 01:21:55 27° E 01:25:51 10° NE
ADEOS II 3.5 01:16:32 10° NNE 01:20:29 32° ENE 01:20:29 32° ENE
Cosmos 2082 Rocket 4.4 01:27:27 10° NW 01:28:15 14° NW 01:28:15 14° NW
Lacrosse 4 Rocket 3.8 01:46:01 19° NNW 01:46:01 19° NNW 01:48:01 10° NNE
Cosmos 2278 Rocket 3.3 01:47:12 34° NW 01:47:12 34° NW 01:51:53 10° NNE
Cosmos 1943 Rocket 2.6 01:48:36 58° N 01:48:36 58° N 01:53:17 10° NNE
SL-08 R/B 4.5 01:49:16 79° N 01:49:16 79° N 01:55:15 10° N
ALOS 4.3 01:52:58 10° NE 01:56:25 20° E 01:57:21 19° ESE
CZ-2D R/B 2.5 01:52:40 10° NNE 01:57:00 61° N 01:57:00 61° N
Resurs 1-4 Rocket 2.5 01:54:47 10° NNE 01:59:10 59° N 01:59:10 59° N
Cosmos 1867 4.2 01:54:59 10° NW 02:00:22 53° NE 02:05:42 10° ESE
Nadezhda 1 Rocket 3.9 01:59:26 10° NNW 02:05:11 72° WNW 02:05:11 72° WNW
Cosmos 1346 Rocket 4.5 02:08:57 32° NNE 02:08:57 32° NNE 02:11:13 10° NNE
BREEZE-M DEB (TANK) 4.3 02:10:26 46° ESE 02:10:26 46° ESE 02:12:40 10° E
IRIDIUM 114 4.5 02:11:45 71° ENE 02:11:45 71° ENE 02:16:42 10° N
IDEFIX/ARIANE 42P 2.7 02:07:21 10° NNE 02:11:53 68° N 02:11:53 68° N
Meteor 1-25 Rocket 4.4 02:12:47 10° N 02:18:28 68° ENE 02:19:41 52° SE
Cosmos 2221 3.8 02:19:39 35° E 02:19:53 35° E 02:23:51 10° NNE
IRIDIUM 103 4.3 02:20:53 81° NNE 02:20:53 81° NNE 02:25:53 10° N
SeaSat 1 2.9 02:16:58 10° NE 02:21:49 53° ESE 02:21:50 53° ESE
Cosmos 2297 3.7 02:24:19 71° WNW 02:24:21 71° WNW 02:30:06 10° NNE
ATLAS CENTAUR R/B 2.1 02:27:11 55° ENE 02:27:11 55° ENE 02:30:41 10° NE
MSX 3.6 02:20:54 10° NNE 02:26:43 81° WNW 02:27:03 77° WSW
Lacrosse 5 1.8 02:29:14 80° NE 02:29:14 80° NE 02:34:05 10° ENE
Cosmos 44 3.7 02:29:51 50° E 02:29:51 50° E 02:33:58 10° NE
AQUA 4.2 02:26:13 10° N 02:30:11 55° NNW 02:30:11 55° NNW
Cosmos 2285 Rocket 3.8 02:31:11 67° SSW 02:32:08 87° WNW 02:38:28 10° NNE
ATLAS 5 CENTAUR R/B 2.6 02:33:43 35° N 02:33:43 35° N 02:37:02 10° NE
Cosmos 1386 Rocket 4.5 02:33:27 58° W 02:33:45 59° WNW 02:39:59 10° N
Cosmos-2242 4.2 02:37:52 34° NNW 02:37:52 34° NNW 02:40:41 10° N
GEOS 3 Rocket 4.2 02:33:20 10° ESE 02:38:27 57° NE 02:43:41 10° NW
Meteor 2-20 4.3 02:32:37 10° NNW 02:38:43 80° W 02:40:06 56° S
IRIDIUM 106 4.3 02:39:09 68° WNW 02:39:09 68° WNW 02:44:12 10° N
Cosmos 1782 3.6 02:39:37 46° E 02:39:37 46° E 02:43:16 10° NNE
Cosmos 1745 Rocket 4.1 02:45:15 51° W 02:45:45 53° WNW 02:51:46 10° N
Cosmos 1933 3.6 02:50:35 65° E 02:50:36 65° E 02:54:37 10° NNE
ATLAS 2AS CENTAUR R/B 4.4 02:45:43 10° NW 02:52:05 31° NNE 02:58:08 10° ENE
Cosmos 1408 Rocket 4.4 02:48:15 10° N 02:52:38 50° ENE 02:55:59 16° SSE
YAOGAN 11 4.1 02:54:20 65° NW 02:54:20 65° NW 02:58:07 10° NNW
Cosmos 2181 Rocket 4.0 02:49:40 10° N 02:56:08 86° W 03:00:36 22° S
Cosmos 1242 Rocket 3.7 02:52:45 10° N 02:54:57 36° N 02:54:57 36° N
Cosmos 1709 Rocket 3.9 02:55:58 51° SW 02:57:19 65° WNW 03:03:28 10° N
Okean 3 Rocket 3.4 02:53:52 10° NNW 02:58:16 84° W 02:58:25 82° SW
ADEOS II 2.6 02:56:09 10° N 03:01:04 41° WNW 03:01:24 41° WNW
Thor Agena Rocket 4.1 02:58:19 10° N 03:03:03 40° WNW 03:03:16 40° WNW
SL-16 R/B 3.6 03:04:22 27° WNW 03:04:22 27° WNW 03:08:38 10° NW
Meteor 2-20 Rocket 4.3 02:57:17 10° NNW 03:03:21 74° W 03:06:36 29° S
Cosmos 2369 Rocket 2.3 03:03:42 49° W 03:04:50 59° NW 03:10:25 10° NNE
Cosmos 921 Rocket 3.3 03:05:51 53° WNW 03:05:53 53° WNW 03:10:20 10° NNE
Helios 1A 3.2 03:05:41 19° SSE 03:08:31 69° ENE 03:12:39 10° N
Cosmos 2297 Rocket 3.9 03:03:28 10° NNW 03:08:36 33° NE 03:13:42 10° ESE
Cosmos 923 Rocket 4.2 03:08:45 34° S 03:10:57 65° ESE 03:16:08 10° NNE
CZ-2C R/B 4.2 03:07:02 10° NNE 03:11:29 37° E 03:16:00 10° SSE
NOSS 3-4 (A) 3.9 03:04:47 10° NW 03:11:35 79° NE 03:19:22 10° SE
NOSS 3-4 (C) 3.9 03:04:54 10° NW 03:11:41 78° NE 03:19:28 10° SE
BREEZE-M R/B 4.5 03:07:11 30° WSW 03:12:01 74° S 03:15:31 10° E
Cosmos 1833 4.4 03:07:30 10° NW 03:12:57 46° WSW 03:13:41 44° SW
CZ-2C R/B 2.8 03:08:24 10° NNE 03:13:09 59° ESE 03:16:12 22° S
Cosmos 1680 Rocket 4.0 03:16:16 24° S 03:19:18 59° ESE 03:24:30 10° NNE
Meteor 1-26 Rocket 4.2 03:16:42 25° S 03:20:05 82° E 03:25:53 10° NNE
BREEZE-M DEB (TANK) 3.8 03:17:33 33° SW 03:20:39 62° SSE 03:23:54 10° E
NOSS 3-3 (A) 3.8 03:18:44 39° SW 03:21:05 89° WNW 03:27:46 10° NE
FENGYUN 3A 3.7 03:15:44 10° N 03:21:08 66° WNW 03:23:11 38° SW
NOSS 3-3 (C) 3.8 03:18:50 39° SW 03:21:12 90° N 03:27:52 10° NE
NOSS 2-1 (C) 4.3 03:18:22 10° NW 03:22:16 56° NE 03:27:35 10° ESE
Cosmos 1656 Rocket 4.1 03:20:51 37° W 03:22:20 45° NW 03:27:39 10° NNE
Cosmos 1842 Rocket 3.4 03:21:11 41° S 03:22:43 89° WNW 03:27:06 10° N
ERS-2 3.5 03:20:16 10° N 03:22:22 24° NW 03:22:22 24° NW
Nadezhda 3 Rocket 4.3 03:18:15 10° N 03:24:33 71° ENE 03:30:52 10° SSE
Cosmos 2227 Rocket 4.2 03:20:02 10° NNW 03:24:59 29° NE 03:29:52 10° ESE
CZ-2C R/B 2.6 03:19:31 10° S 03:25:03 69° WSW 03:30:36 10° NNW
Cosmos 1538 Rocket 4.4 03:24:43 38° WSW 03:26:13 49° WNW 03:31:29 10° NNE
NOSS 2-1 (D) 4.2 03:23:21 10° NW 03:27:18 60° NE 03:32:40 10° ESE
Cosmos 1371 Rocket 3.9 03:24:08 10° NNW 03:29:21 89° WSW 03:34:32 10° SSE
Cosmos 2112 Rocket 4.4 03:26:33 20° S 03:30:07 62° ESE 03:35:21 10° NNE
IRS-1D 3.4 03:25:17 10° N 03:30:12 64° WNW 03:32:12 35° SW
ARIANE 5 R/B 4.1 03:25:31 10° NNE 03:30:15 35° E 03:34:59 10° SSE
Cosmos 1943 Rocket 3.9 03:30:06 15° WNW 03:32:26 19° NW 03:36:26 10° N
Genesis I 4.3 03:30:52 24° S 03:32:36 38° ESE 03:36:15 10° NE
Cosmos 2278 Rocket 4.5 03:30:14 10° NW 03:32:36 13° NNW 03:35:00 10° N
Timation 1 Rocket 4.4 03:26:51 10° NW 03:32:44 56° WSW 03:38:33 10° S
ALOS 2.3 03:29:31 10° N 03:34:07 58° WNW 03:35:46 36° SW
Cosmos 1812 3.4 03:35:03 35° WNW 03:35:03 35° WNW 03:38:23 10° N
Cosmos 972 Rocket 4.3 03:29:20 10° NNW 03:35:48 85° WSW 03:41:30 10° SSE
Cosmos 2056 Rocket 3.4 03:31:55 10° NNW 03:37:08 82° WSW 03:42:23 10° SSE
CZ-2D R/B 3.8 03:34:02 10° NNW 03:37:15 17° NW 03:38:19 16° WNW
ARGOS Delta rocket 4.0 03:36:53 38° WSW 03:37:21 39° W 03:41:32 10° NNW
Resurs 1-4 Rocket 3.9 03:36:02 10° NNW 03:39:05 16° NW 03:40:15 15° WNW
Cosmos 1500 Rocket 3.4 03:35:56 10° NNW 03:40:16 84° W 03:44:36 10° S
Cosmos 2074 Rocket 3.9 03:37:02 15° SSW 03:42:23 79° W 03:48:42 10° N
Cosmos 1867 4.0 03:38:52 10° NW 03:43:49 36° WSW 03:48:44 10° S
Cosmos 1805 Rocket 3.6 03:42:44 10° N 03:47:12 83° E 03:51:39 10° SSE
Helios 1B rocket 4.4 03:45:43 10° NE 03:49:12 28° E 03:52:39 10° SSE
Cosmos 1624 Rocket 3.9 03:44:05 10° NNW 03:49:24 67° WSW 03:54:38 10° S
IDEFIX/ARIANE 42P 4.3 03:48:16 10° NNW 03:51:21 16° NW 03:52:41 15° WNW
USA 276 3.1 03:51:00 28° S 03:51:29 30° SSE 03:54:05 10° E
Cosmos 1420 Rocket 3.9 03:46:42 10° NNW 03:51:50 66° WSW 03:56:59 10° S
Meteor 1-14 Rocket 4.1 03:51:11 10° NNW 03:56:42 67° W 04:02:13 10° S
Cosmos 2221 3.5 03:56:24 25° W 03:57:24 28° WNW 04:01:11 10° N
CBERS-1 4.0 03:52:48 10° N 03:57:54 68° WNW 04:02:11 15° SSW
SeaSat 1 3.4 03:54:46 10° NNE 03:59:07 32° NW 04:01:35 21° W
Meteor 2-6 Rocket 4.4 03:54:20 10° S 04:00:18 86° ESE 04:06:18 10° NNE
Orbus 7S? 3.9 03:55:18 10° WNW 04:03:01 71° SW 04:06:33 10° SE
USA 32 4.1 03:58:20 10° N 04:03:37 83° E 04:08:51 10° S
USA 281 3.5 03:58:04 10° SE 04:04:36 73° ENE 04:11:10 10° NNW
ATLAS CENTAUR R/B 2.9 04:02:53 18° WNW 04:05:10 26° NNW 04:08:47 10° NNE
Cosmos 1461 3.5 04:01:55 15° SSW 04:05:29 61° SE 04:10:02 10° NE
Cosmos 1743 2.8 04:03:24 10° N 04:07:11 75° E 04:10:54 10° SSE
Cosmos 44 4.2 04:08:15 19° W 04:10:50 33° NW 04:15:10 10° NNE
Lacrosse 5 2.7 04:08:25 15° WNW 04:12:24 43° N 04:17:15 10° ENE
PAYLOAD A 4.3 04:07:24 10° N 04:12:36 51° WNW 04:17:11 12° SW
Cosmos 1452 Rocket 3.8 04:09:12 10° NNW 04:14:30 72° ENE 04:19:46 10° SSE
SL-27 R/B 2.9 04:12:48 10° NW 04:15:39 30° WSW 04:18:29 10° SSW
Cosmos 1782 4.3 04:15:00 17° W 04:15:51 18° WNW 04:18:38 10° NNW
SL-08 R/B 3.6 04:11:04 10° SSE 04:15:55 75° ENE 04:20:42 10° NNW
GEOS 3 Rocket 4.1 04:11:50 10° S 04:16:39 38° WSW 04:21:35 10° NW
ATLAS 5 CENTAUR R/B 3.7 04:15:46 10° NW 04:18:35 17° N 04:21:42 10° NE
Cosmos 1151 Rocket 3.3 04:15:42 10° S 04:20:00 72° E 04:24:20 10° NNE
NOSS 2-1 (E) 3.8 04:16:49 10° NW 04:21:01 67° SW 04:26:57 10° SSE
DMSP B5D2-2 4.2 04:17:26 10° SSE 04:22:40 85° ENE 04:27:54 10° NNW
SL-8 Rocket 4.5 04:17:06 10° S 04:23:19 66° E 04:29:32 10° NNE
Envisat 3.0 04:19:26 10° N 04:24:30 66° WNW 04:29:31 10° SSW
IRS-1C 4.1 04:23:15 10° NNE 04:28:37 76° WNW 04:33:55 10° SSW
DELTA 2 DEB (DPAF) 4.2 04:27:28 10° SSE 04:31:51 82° ENE 04:36:16 10° NNW
YAOGAN 6 3.1 04:28:53 10° N 04:32:11 38° WNW 04:35:29 10° SW
Cosmos 1697 Rocket 4.4 04:29:18 10° S 04:34:17 34° ESE 04:39:18 10° NE
Cosmos 1339 Rocket 4.4 04:28:30 10° NNW 04:34:33 68° W 04:40:37 10° S
SL-19 R/B 4.2 04:29:27 10° N 04:34:38 58° WNW 04:39:43 10° SW
Cosmos 1666 Rocket 3.5 04:30:26 10° NNW 04:34:47 83° W 04:39:06 10° S
Sich 1 3.5 04:31:30 10° NNW 04:35:36 38° W 04:39:41 10° SSW
SKYMED 2 4.1 04:32:30 10° SSE 04:36:48 64° ENE 04:41:07 10° N
COSMOS 2455 3.4 04:32:13 10° SSW 04:38:07 63° ESE 04:44:06 10° NE
Meteor 1-27 Rocket 4.1 04:32:25 10° S 04:38:11 74° E 04:43:53 10° NNE
Cosmos 1437 Rocket 2.7 04:34:50 10° NNW 04:38:44 87° W 04:42:32 10° S
Meteor 2-9 Rocket 4.4 04:37:25 10° N 04:42:46 75° ENE 04:48:10 10° SSE
Cosmos 405 Rocket 2.6 04:39:35 10° S 04:43:11 83° E 04:46:50 10° NNE
IKONOS-2 4.5 04:39:16 10° SSE 04:43:28 85° WSW 04:47:43 10° NNW
ATLAS 2AS CENTAUR R/B 3.3 04:37:17 10° NW 04:44:21 63° NE 04:51:00 10° ESE
Cosmos 1536 2.9 04:42:17 10° NNW 04:46:10 54° W 04:50:02 10° S
SAR-Lupe-2 4.1 04:43:15 10° N 04:46:37 38° WNW 04:49:56 10° SW
Cosmos 1633 Rocket 3.0 04:44:22 10° NNW 04:48:48 73° W 04:53:11 10° S
Cosmos 2369 Rocket 4.0 04:46:28 10° WNW 04:50:07 17° NNW 04:53:47 10° N
CZ-2C R/B 3.6 04:47:18 10° N 04:51:01 23° WNW 04:54:48 10° WSW
CZ-2C R/B 3.7 04:47:06 10° N 04:51:19 32° WNW 04:55:35 10° SW
Cosmos 2297 Rocket 2.3 04:47:24 10° NW 04:52:56 56° WSW 04:58:26 10° S
H-2A R/B 2.7 04:52:16 10° N 04:55:49 52° WNW 04:59:17 10° SSW
CZ-2D R/B 3.7 04:52:40 10° N 04:56:52 54° WNW 05:00:57 10° SSW
NOAA 11 4.3 04:51:45 10° N 04:57:05 58° WNW 05:02:24 10° SSW
Cosmos 1484 Rocket 3.6 04:54:07 10° N 04:57:24 30° WNW 05:00:44 10° SW
Meteor 1-11 Rocket 4.0 04:55:03 10° NNW 05:00:20 45° W 05:05:33 10° SSW
